Theta_e
330 330 330 332 332 334 336 337 339 340 340 343 345 346 347 348 349 351 353 355 355 354 356 357 358 359 359 358 359 359 360 359 359 357 355 354 355 353 350 353 352 351 351 351 349 352 350 352 351 350 350 349 349 346 343 341 338 341 342 342 343 341 338
329 329 329 331 333 334 337 338 339 341 341 343 345 346 348 348 349 350 353 355 356 356 356 357 358 358 359 360 360 360 359 359 359 358 357 356 355 354 353 354 354 352 351 352 351 352 351 351 351 350 349 349 346 344 343 342 340 340 340 340 342 340 339
328 329 330 330 333 334 337 339 339 341 343 343 346 347 348 349 350 351 353 355 356 357 358 358 358 359 359 360 360 360 360 359 358 358 357 356 355 355 355 354 355 354 353 353 353 352 352 350 351 350 349 347 345 343 342 342 341 342 340 340 340 340 337
328 329 331 332 333 335 336 339 341 341 344 345 346 347 348 349 351 353 355 355 356 357 357 358 358 359 359 359 360 360 359 359 358 358 358 358 355 356 355 354 355 355 354 353 354 353 352 352 350 348 352 345 345 343 341 341 343 342 341 339 338 340 338
328 330 331 332 332 333 335 336 341 341 342 346 347 348 349 350 352 353 355 357 357 357 358 359 360 360 360 360 361 361 359 358 359 359 359 359 357 356 355 354 354 355 355 354 354 354 350 349 350 348 347 344 344 344 342 341 342 342 341 339 338 339 338
328 329 329 331 331 332 335 337 339 342 342 344 346 347 349 350 352 353 355 357 357 358 359 360 359 360 359 360 361 361 360 359 359 359 359 359 357 355 355 355 354 354 355 354 354 353 350 348 350 349 346 344 344 344 342 341 342 341 341 338 337 338 338
328 328 329 330 331 331 333 336 339 341 343 344 347 349 349 350 351 353 355 356 357 357 358 359 360 359 359 360 360 360 359 358 358 359 359 359 359 355 355 356 355 355 354 355 354 352 350 347 348 348 347 344 344 343 342 341 341 341 340 338 337 337 338
327 328 328 330 330 331 333 336 338 341 343 344 347 348 348 349 350 352 353 355 358 358 359 359 360 360 359 360 360 359 360 359 359 359 359 358 358 356 355 355 355 355 354 353 354 352 351 348 347 348 347 345 344 343 342 342 341 341 339 340 336 337 340
327 328 329 330 331 332 335 337 338 339 341 342 344 348 348 348 349 350 352 354 357 358 358 360 361 361 360 360 360 359 360 360 359 359 358 357 357 357 356 355 355 356 354 353 353 353 352 350 348 347 346 345 344 343 342 342 341 341 339 339 338 337 338
326 327 328 330 332 332 336 338 338 338 340 341 342 346 347 348 349 350 352 353 355 357 358 360 361 361 360 359 360 360 359 359 359 359 358 357 357 357 356 356 355 356 354 354 353 352 352 351 348 346 345 344 343 342 341 341 341 340 339 338 338 338 337
327 328 328 329 330 330 333 337 337 337 340 342 344 346 347 348 348 349 350 352 353 355 358 359 361 361 360 359 359 359 359 358 359 358 358 357 357 356 357 356 356 356 354 354 353 353 352 351 349 347 345 344 343 341 341 341 341 340 339 339 339 338 338
328 328 328 328 328 328 330 335 336 337 340 343 344 346 347 347 348 349 349 350 352 353 356 358 360 361 360 359 358 358 358 358 358 358 358 358 357 356 356 356 356 355 355 354 352 352 352 351 349 347 345 344 343 342 341 341 341 340 340 339 339 338 338
328 328 328 327 328 329 332 334 335 338 340 343 344 345 347 348 348 349 348 348 351 353 355 357 359 360 360 359 358 357 357 358 358 358 358 358 357 357 356 355 356 356 355 355 353 352 351 351 349 348 347 345 343 342 341 341 341 340 340 340 339 338 338
334 328 328 329 329 329 331 334 336 338 339 341 343 344 347 349 349 349 348 348 349 352 355 358 359 359 359 359 357 356 357 358 358 359 359 359 358 356 356 355 354 355 355 355 353 351 352 351 350 348 347 346 343 342 342 342 341 340 340 340 340 339 338
327 328 328 328 328 328 332 333 335 337 339 339 340 341 344 348 349 349 349 349 349 352 355 357 358 358 358 358 356 356 357 357 358 359 360 359 358 356 355 355 354 355 355 354 353 352 352 352 351 348 346 346 344 342 341 341 342 341 340 340 340 340 339
327 328 328 328 329 331 333 335 337 337 339 340 339 339 341 346 349 349 349 349 350 351 354 356 357 356 357 357 356 356 357 357 357 358 359 359 358 357 356 355 354 355 355 354 353 352 352 352 351 349 347 345 343 342 341 341 342 337 330 334 340 340 340
329 336 340 337 334 334 335 336 338 339 340 341 342 341 341 345 349 350 351 351 351 351 353 355 355 354 355 356 357 357 357 357 357 357 358 359 359 358 357 355 355 354 355 355 354 352 352 352 350 348 347 345 343 342 342 342 341 330 328 330 334 339 339
329 333 338 338 339 340 343 343 339 341 342 343 345 345 344 346 348 350 351 352 351 351 352 352 353 352 352 356 358 358 358 357 357 356 357 359 359 359 357 356 354 353 353 355 354 353 352 351 350 348 347 345 344 342 342 342 332 326 327 329 330 334 339
327 330 334 336 337 339 344 349 346 344 345 347 348 347 347 348 349 350 351 351 352 351 350 349 350 350 350 353 357 358 359 358 357 357 356 357 358 359 358 356 354 353 353 354 354 353 352 350 349 347 346 345 343 342 342 342 331 325 326 328 328 330 335
320 325 332 338 339 340 341 346 352 352 348 349 351 350 349 349 349 350 352 351 350 349 348 346 347 348 348 350 355 358 358 358 358 357 357 357 358 358 358 356 354 354 354 355 354 353 352 350 348 347 345 345 344 342 342 342 329 324 323 325 326 327 331
324 326 326 333 337 339 341 342 346 352 352 352 352 352 350 349 349 350 350 350 347 346 345 344 345 346 347 348 353 357 358 358 358 358 358 358 358 358 357 356 355 354 354 354 354 353 351 350 347 346 345 345 345 343 342 342 325 321 321 322 322 324 329
319 323 323 330 339 341 341 341 344 350 352 355 354 353 352 349 350 349 349 349 347 344 343 343 345 346 346 347 352 356 358 358 358 359 359 359 358 358 357 356 355 355 355 353 353 353 352 350 348 346 345 346 345 343 340 341 321 320 320 320 321 324 332
316 317 318 324 341 343 344 344 346 350 352 353 354 353 353 352 351 351 350 348 347 345 342 342 345 346 346 347 352 356 358 359 360 360 360 360 359 358 357 356 356 355 354 352 350 350 349 348 347 347 346 345 345 343 342 338 321 318 317 318 319 322 333
315 316 318 321 337 344 345 345 346 348 351 352 352 353 353 353 352 351 350 349 348 348 345 342 345 348 348 348 353 357 360 361 362 362 362 361 360 359 358 358 357 355 353 352 349 348 348 347 346 346 346 345 344 343 341 333 322 315 315 316 316 323 332
315 313 315 315 318 336 346 347 347 348 350 351 351 352 353 353 352 352 350 350 349 349 349 346 348 351 349 350 355 360 362 363 363 363 362 361 360 359 358 357 356 355 354 352 351 349 349 347 346 345 344 343 342 339 337 332 322 313 315 315 314 323 332
324 319 316 317 318 318 342 350 350 350 352 351 350 352 352 352 352 350 350 350 350 349 349 351 354 354 353 355 361 364 364 364 363 363 362 360 359 359 358 357 356 355 352 350 349 348 348 347 345 343 342 341 340 339 337 334 329 321 312 312 312 317 331
337 332 341 344 338 337 323 349 351 351 353 353 353 353 353 352 351 349 349 350 349 348 350 355 359 358 359 363 365 365 365 364 363 362 361 360 358 357 355 354 353 352 350 349 347 345 344 345 344 343 340 339 338 337 336 337 333 323 310 309 310 314 321
342 345 349 351 350 348 341 327 352 353 354 355 354 353 353 352 350 349 349 349 348 349 352 359 361 363 364 364 364 364 364 363 362 361 359 357 355 353 351 350 350 349 349 345 344 343 342 341 340 339 337 338 338 336 335 338 333 325 312 311 310 311 316
335 338 341 344 346 347 352 348 340 351 355 356 355 354 353 352 350 350 350 349 349 352 358 363 364 365 365 364 363 362 363 362 359 358 357 354 353 351 348 348 347 346 345 343 341 339 337 336 336 335 335 335 335 334 335 336 333 320 319 311 309 307 311
335 336 340 343 347 348 348 345 342 342 341 344 350 354 354 353 350 350 350 350 352 357 363 364 365 365 363 361 361 361 361 360 358 357 355 353 351 349 347 346 345 344 342 340 338 336 334 334 334 333 333 333 334 334 333 334 331 320 317 316 310 307 309
335 335 337 339 344 347 344 342 342 343 344 344 344 344 353 355 352 350 349 352 357 361 364 364 364 363 361 361 360 359 359 359 357 355 353 352 350 346 345 344 343 339 338 338 336 335 333 332 333 332 332 332 333 332 333 331 328 325 320 315 311 309 309
343 341 339 339 344 348 345 342 351 346 340 341 344 346 347 354 354 350 351 358 360 364 365 364 362 360 359 359 358 358 358 356 355 353 352 350 348 346 345 343 340 338 337 336 335 334 333 332 332 332 332 333 333 334 331 328 326 323 321 319 313 312 311
342 344 344 342 343 347 350 347 351 354 357 356 360 359 358 358 356 356 360 361 364 365 364 362 359 356 356 356 356 356 355 353 351 350 348 347 346 345 343 341 339 337 336 335 334 333 332 332 332 332 332 332 334 333 331 328 325 323 320 320 317 318 317
341 339 338 338 338 340 340 340 339 338 338 337 335 337 342 351 357 363 364 364 365 363 360 356 355 355 355 354 353 352 351 350 353 347 344 343 343 342 340 339 338 337 335 335 335 333 333 333 333 333 333 333 335 333 330 328 326 324 323 322 322 321 320
341 337 336 334 335 336 336 335 335 335 335 335 337 338 338 339 340 342 348 354 357 358 356 353 350 353 353 353 350 348 345 341 333 330 326 319 313 309 313 331 336 328 321 316 318 333 337 336 335 336 337 337 335 332 330 329 327 327 319 325 317 321 323
339 339 338 338 337 335 335 335 335 335 334 334 335 335 337 338 341 345 346 344 344 343 342 342 346 347 349 349 347 343 337 333 330 327 324 322 320 318 314 306 300 310 324 319 310 304 303 320 337 339 338 338 336 334 334 331 332 316 310 308 308 309 311
335 336 339 339 336 334 333 333 335 334 333 333 334 334 334 334 339 342 343 343 344 343 341 341 341 344 344 344 343 338 334 331 329 328 326 324 323 321 319 316 311 298 297 304 304 300 296 296 305 315 324 334 329 314 307 317 310 306 305 304 305 306 306
334 335 337 341 340 337 334 334 337 337 337 339 340 340 340 337 337 339 342 340 341 343 342 343 342 342 342 341 339 336 334 332 330 328 327 325 324 322 321 320 317 315 302 296 298 298 296 296 298 306 312 315 317 316 315 307 304 304 303 303 302 304 303
Wind_Speed
19 18 14 14 15 14 17 18 18 18 19 18 19 20 19 17 17 16 16 17 19 18 18 17 16 15 16 15 15 13 13 12 10 11 10 10 8 10 11 10 11 10 9 10 9 9 9 10 10 10 9 9 7 7 7 6 7 5 4 5 7 6 6
19 16 15 14 15 15 16 18 17 17 18 18 18 20 19 19 17 17 17 18 20 20 19 18 17 15 16 15 14 14 14 13 12 10 10 9 8 9 11 11 11 11 10 9 9 8 10 10 10 11 10 8 7 8 8 7 7 7 5 4 7 6 6
17 15 15 15 14 13 15 16 16 17 18 17 17 18 20 19 18 19 17 18 19 19 17 18 17 16 15 14 14 15 14 13 13 12 12 12 12 12 10 10 10 10 10 10 9 8 9 10 9 11 10 9 9 9 8 8 7 7 6 6 6 6 6
17 16 15 17 16 15 16 17 19 17 16 18 19 21 19 19 17 17 17 19 20 19 19 18 17 16 15 15 15 15 15 14 14 13 13 12 13 11 10 10 9 9 10 11 10 10 8 9 10 11 11 9 9 9 9 9 8 7 7 7 7 6 6
20 17 16 16 16 15 14 15 17 17 18 19 20 19 18 18 17 15 15 17 19 21 20 19 16 16 14 15 12 13 15 15 14 13 12 12 12 11 12 13 11 11 11 11 11 10 10 9 10 11 11 10 10 9 10 9 8 8 7 7 7 7 6
17 17 15 16 16 16 16 18 19 20 20 19 18 17 17 18 16 18 17 17 17 17 16 16 17 16 15 15 14 13 13 14 13 13 14 13 13 12 12 13 13 12 11 12 11 11 11 10 11 11 11 10 11 10 10 9 9 9 7 8 8 7 7
17 17 16 16 17 17 17 17 17 17 17 18 16 16 17 18 20 19 17 17 18 19 19 18 18 17 15 14 15 15 15 15 13 14 13 14 14 13 12 12 13 12 11 10 12 12 12 12 11 12 12 12 11 11 10 10 9 9 8 8 8 8 8
19 19 18 19 19 18 17 16 17 17 16 15 15 17 20 20 18 19 20 18 18 18 18 19 18 16 15 14 14 16 16 16 14 14 13 14 14 13 13 12 12 12 11 13 12 12 12 13 11 11 12 12 12 12 11 11 11 10 9 9 10 9 8
22 23 23 22 21 19 17 17 18 19 20 20 20 20 21 19 19 20 20 19 18 19 19 19 18 16 15 15 15 17 15 15 15 14 15 16 14 14 14 13 12 12 13 13 12 12 12 13 13 12 13 12 12 12 12 12 11 10 11 10 11 11 10
15 17 20 19 17 16 15 15 15 14 15 16 15 16 20 20 20 19 18 19 18 20 20 19 17 16 16 15 16 16 15 16 15 16 16 16 14 15 15 14 12 12 13 13 12 13 12 12 13 13 13 13 12 12 12 12 11 11 11 12 11 11 11
17 19 19 18 18 17 16 14 16 15 16 17 16 16 18 18 18 19 19 18 19 18 19 18 17 17 17 17 17 17 16 17 16 17 18 17 15 16 16 15 14 12 14 13 13 13 12 11 12 13 13 13 13 13 13 13 13 12 12 11 11 12 11
15 20 18 17 16 15 15 17 16 15 16 17 17 17 16 17 18 18 18 19 17 17 18 18 16 17 17 17 18 17 19 18 17 18 19 18 16 17 16 15 14 14 13 14 14 13 13 13 12 13 14 13 14 14 13 13 13 13 13 13 12 12 11
12 20 20 18 17 15 13 15 17 18 18 17 17 16 15 16 17 17 17 18 18 17 17 17 17 17 17 18 19 17 19 18 18 18 18 17 17 15 15 15 15 15 15 14 14 14 13 13 14 12 13 13 13 14 14 13 13 13 13 13 12 13 12
13 14 15 15 14 17 18 18 18 17 15 15 16 16 16 16 18 18 18 19 17 16 16 15 17 17 17 18 18 18 19 19 18 17 17 16 15 15 15 15 14 15 14 13 14 14 14 14 14 12 12 13 13 13 12 12 12 12 12 12 12 12 12
10 16 19 19 18 17 16 14 12 13 12 13 14 15 16 15 16 15 15 16 17 17 19 17 17 17 17 17 18 19 18 18 16 15 15 15 15 15 15 15 14 14 13 13 13 12 13 12 13 12 12 12 12 11 11 11 11 11 12 12 12 11 12
6 7 14 17 18 17 15 15 14 14 15 15 15 16 15 14 15 16 17 18 18 18 17 16 17 17 17 18 19 17 17 17 15 15 15 16 16 16 15 15 14 13 13 14 14 13 11 11 12 13 13 12 12 11 10 11 9 12 18 16 12 12 10
12 11 6 6 6 9 11 14 15 15 16 16 18 18 17 16 17 17 18 17 18 18 17 17 17 18 18 18 18 17 17 16 15 14 16 16 16 15 15 15 13 13 13 13 13 14 12 11 13 13 13 14 13 13 11 10 10 16 16 18 17 11 9
16 11 11 12 12 12 13 14 14 14 15 17 17 18 17 16 16 16 17 18 19 18 16 17 17 19 18 18 17 17 17 16 15 15 16 15 16 15 15 14 13 13 12 12 14 13 11 12 14 13 13 11 12 12 11 10 12 16 17 18 17 15 10
13 17 18 16 14 13 12 14 16 16 17 16 16 16 17 18 16 17 18 18 18 16 16 17 17 18 18 17 18 18 17 16 16 16 16 16 15 14 14 13 12 12 11 13 13 11 12 12 12 12 11 12 12 12 12 11 14 17 18 18 18 17 13
8 11 12 14 16 17 16 13 13 15 18 17 18 20 19 17 18 18 18 18 15 17 18 17 16 17 18 17 18 18 17 17 17 17 16 15 14 13 13 14 13 12 10 9 10 12 12 11 11 11 11 11 12 12 13 13 14 18 19 19 19 17 15
4 3 3 11 14 15 14 14 13 12 11 12 14 13 13 15 17 17 16 15 16 17 18 17 16 16 17 18 18 17 17 17 17 17 15 15 14 13 14 14 12 10 9 10 12 12 13 12 10 10 11 12 12 13 12 11 15 18 19 19 19 19 16
5 4 4 9 14 12 13 14 13 13 14 13 14 14 15 16 16 16 16 16 17 16 17 17 15 16 16 17 17 18 18 18 17 16 15 15 14 14 14 13 12 11 9 9 9 9 10 9 9 11 12 12 12 11 11 9 16 18 19 20 19 19 11
3 4 4 5 14 16 15 15 15 17 16 14 14 13 14 15 16 16 16 16 15 15 15 16 16 16 18 18 17 18 18 17 17 16 15 15 15 15 14 13 12 11 9 9 9 9 10 10 9 10 12 12 10 11 10 7 14 18 19 20 20 14 10
3 2 2 2 7 12 12 11 15 17 16 17 16 17 16 15 15 14 15 16 16 14 14 16 16 16 17 18 18 17 17 17 17 17 16 15 15 15 13 12 10 10 10 11 10 9 9 8 8 9 10 11 11 11 11 8 12 18 19 19 19 16 12
8 5 5 6 5 10 13 13 12 9 11 15 17 17 16 16 16 15 15 16 17 16 14 15 16 16 17 18 17 16 16 16 16 16 16 15 15 14 13 12 11 10 10 10 10 9 8 8 8 8 7 9 8 10 9 6 10 16 18 19 18 15 9
15 15 9 8 6 6 13 15 13 12 11 12 15 16 15 14 14 17 17 17 17 17 17 15 16 17 16 15 15 15 15 15 16 16 16 15 13 12 12 11 10 9 9 8 8 9 8 7 5 5 4 4 6 7 6 7 7 12 15 16 16 17 11
6 5 3 5 3 5 3 12 15 16 18 17 18 16 14 13 14 16 16 16 16 18 19 16 13 13 14 15 15 16 16 15 16 16 14 13 13 12 10 9 9 9 9 8 6 6 7 7 7 7 6 6 6 6 6 6 8 11 16 15 17 18 14
7 7 4 1 5 7 4 3 12 16 19 17 17 17 17 17 17 16 15 15 17 18 16 13 13 13 14 16 16 16 16 16 14 14 13 12 12 11 10 7 8 7 8 7 7 7 8 7 8 7 7 6 6 5 6 7 12 9 15 17 17 16 15
5 6 8 9 8 7 6 4 3 8 11 15 17 16 15 18 18 17 16 17 18 14 13 14 14 14 15 15 16 15 14 14 15 13 11 11 12 12 11 9 9 9 8 8 8 8 8 8 8 8 8 7 6 6 5 5 7 13 12 14 14 14 12
5 4 5 5 5 6 10 11 11 13 15 15 13 7 13 18 17 15 16 18 12 11 14 15 15 15 15 14 14 14 13 13 13 12 11 13 12 12 12 11 10 8 7 8 9 9 8 7 7 8 7 7 6 6 5 5 6 8 13 12 15 13 14
5 4 4 6 6 3 6 9 9 8 7 6 7 16 18 4 11 14 16 12 12 15 17 18 17 16 15 15 14 14 13 13 12 12 11 11 13 13 11 11 10 9 7 9 9 8 8 6 6 6 6 6 7 6 5 5 4 4 7 12 13 14 15
5 6 7 8 7 6 4 3 8 8 4 7 13 13 14 14 10 15 14 12 14 16 17 18 18 16 16 14 14 14 14 14 12 12 11 11 10 11 10 11 11 10 8 9 8 8 8 7 6 6 6 5 6 6 6 5 5 5 5 5 9 9 13
7 7 7 9 9 7 6 5 7 9 9 9 6 4 11 14 12 12 10 12 14 15 16 17 17 16 15 15 14 14 14 14 12 11 11 10 9 9 10 10 10 10 9 8 9 8 7 7 7 6 6 6 6 7 6 5 5 5 5 5 6 6 6
8 8 8 8 8 12 13 14 12 11 11 11 13 18 20 17 11 4 7 12 13 15 16 17 17 17 16 16 14 12 13 13 17 14 10 9 10 10 10 9 9 10 9 9 9 9 7 7 7 6 6 5 7 7 6 6 6 6 7 6 7 7 7
9 9 8 10 9 11 11 11 13 12 14 12 13 14 15 19 19 21 19 11 7 10 15 16 18 17 17 15 14 13 11 11 10 11 11 11 12 10 7 5 8 9 7 5 2 7 10 8 7 6 6 6 7 8 6 6 7 8 7 9 11 11 10
11 12 12 10 10 12 13 13 13 14 13 11 10 12 13 10 12 12 11 13 16 16 14 14 12 13 15 14 14 13 12 11 10 11 11 11 11 11 11 16 17 10 6 4 5 8 6 5 6 6 6 6 4 5 9 9 7 10 14 14 14 14 13
15 13 11 10 11 11 11 10 10 10 11 9 10 8 9 11 9 8 10 11 11 12 13 14 12 10 9 11 12 12 11 11 11 10 10 10 11 11 12 9 11 16 15 11 7 7 10 10 4 4 9 9 5 2 8 7 14 16 14 15 15 17 15
13 12 11 11 11 11 12 12 9 8 8 7 7 8 10 12 9 1 5 4 6 8 12 11 13 12 10 10 11 13 11 11 11 11 11 10 10 11 10 10 10 9 13 14 13 14 15 14 13 6 13 13 12 8 4 4 13 16 15 15 15 16 16
Wind_Direction
189 189 185 186 189 183 183 185 182 182 181 181 183 183 181 180 180 177 179 182 184 184 185 185 186 187 188 189 188 187 187 185 183 181 182 185 180 178 176 174 170 173 171 171 179 174 175 174 169 174 175 183 173 173 172 168 170 169 147 155 153 163 168
191 189 189 187 186 183 182 185 183 181 183 183 183 183 181 182 179 179 181 182 184 184 184 185 187 189 188 187 187 187 186 187 184 181 181 183 181 180 178 175 174 176 176 174 176 172 174 177 169 173 180 179 167 164 162 165 167 171 158 157 143 167 170
187 184 184 183 177 175 176 184 184 181 182 182 181 182 185 184 180 179 178 180 182 184 183 186 188 188 188 186 186 188 187 185 184 182 182 184 185 181 181 176 175 175 179 176 173 175 176 176 169 173 177 173 168 167 163 164 169 163 164 161 152 164 176
180 181 177 180 180 182 178 178 184 184 180 180 183 185 185 183 179 179 178 180 180 182 184 186 186 188 188 187 188 187 189 187 185 185 184 183 185 180 178 180 175 175 177 181 176 178 176 170 171 175 176 171 168 170 171 169 170 168 163 161 167 169 182
178 178 177 179 183 186 186 183 183 184 184 185 183 182 183 179 177 177 180 180 181 184 185 184 185 187 187 188 188 189 189 187 186 186 186 185 185 180 181 182 182 180 181 177 177 177 181 173 172 175 176 173 170 171 174 174 172 168 168 166 171 176 181
175 181 182 185 187 187 189 191 189 186 185 182 179 180 178 176 176 180 179 179 183 184 182 182 185 186 189 188 188 189 190 191 187 184 185 186 185 186 184 184 185 183 177 181 178 179 179 180 175 176 175 176 175 173 174 175 177 175 170 173 176 177 184
184 188 187 188 188 190 190 191 192 189 184 182 177 172 173 177 182 180 179 180 181 181 183 185 186 187 189 187 189 187 190 190 187 186 187 189 188 187 185 186 186 187 181 175 181 179 181 183 178 178 177 177 179 177 176 178 178 179 172 177 182 183 187
183 189 190 191 190 190 189 189 187 184 182 180 174 175 179 182 179 181 183 181 181 183 185 186 187 188 186 188 189 191 191 190 188 187 188 191 190 189 189 188 187 184 182 184 181 182 182 185 181 178 177 180 180 180 180 180 180 180 177 178 186 189 188
179 181 187 189 187 186 187 187 186 183 180 182 178 179 179 178 181 183 183 181 183 184 186 187 187 185 185 188 190 193 192 188 188 189 191 192 190 192 192 193 187 185 186 187 184 185 186 183 184 179 178 180 182 181 183 182 181 182 183 185 188 192 195
184 186 185 183 181 181 184 186 180 173 180 185 185 176 178 181 182 180 182 184 184 187 185 186 185 184 185 188 192 192 190 191 190 190 192 194 193 192 194 193 192 187 188 188 187 188 190 183 182 181 182 182 183 183 183 183 183 185 187 189 190 195 198
175 181 185 182 181 182 181 173 172 180 182 183 181 182 181 178 179 181 184 183 187 187 185 185 184 184 187 189 191 191 193 193 191 192 194 196 194 194 193 194 192 190 191 188 191 191 187 187 182 182 185 187 186 186 186 187 185 185 189 192 195 198 200
162 177 182 182 179 175 174 171 179 180 182 183 183 180 180 179 179 180 181 186 184 184 186 185 184 186 187 189 191 193 195 194 193 194 196 196 195 195 195 194 194 192 193 192 192 189 190 187 187 186 188 189 189 190 190 188 188 188 189 192 194 198 202
161 177 181 177 172 173 164 169 180 185 183 181 181 178 178 178 178 179 181 183 185 185 184 183 184 186 188 189 193 193 196 195 196 195 195 195 196 195 195 196 195 194 195 194 192 189 190 191 190 191 189 190 189 192 192 190 190 191 190 192 194 197 200
163 179 176 170 167 166 168 179 181 177 177 177 179 179 177 178 179 179 179 182 184 182 182 183 185 187 188 189 193 196 197 198 198 195 195 195 196 195 196 198 197 197 196 192 195 194 191 190 192 190 189 191 194 195 192 191 191 193 192 191 194 197 201
167 175 174 170 170 169 174 179 178 171 170 177 178 181 182 180 180 177 178 180 183 183 185 181 182 187 188 189 194 196 197 198 197 194 192 194 195 196 197 198 199 196 192 193 197 197 194 189 187 187 192 194 195 194 193 193 194 192 192 193 197 198 201
134 170 173 172 169 171 175 177 176 177 178 179 182 185 186 183 181 180 179 183 184 185 183 179 183 185 187 191 194 195 196 197 194 191 191 193 194 196 197 197 197 195 192 193 195 196 191 186 185 189 190 190 193 193 194 198 198 196 192 193 195 197 201
144 135 138 159 171 175 181 181 181 182 182 182 183 186 187 188 186 184 183 182 183 186 183 181 182 185 189 191 192 192 194 194 193 189 192 194 195 196 196 197 195 193 192 190 190 192 189 183 184 190 190 190 190 194 197 198 201 191 190 194 198 194 194
151 157 155 161 176 180 182 184 183 182 187 187 187 185 186 188 187 182 184 183 186 187 183 183 183 187 189 189 187 189 191 193 189 190 193 193 195 195 195 195 193 193 189 186 187 190 186 186 190 189 188 189 190 195 197 201 196 186 189 192 197 197 189
170 170 173 173 181 183 180 181 183 187 188 189 189 187 189 186 182 186 187 186 186 180 183 186 187 187 188 187 185 187 189 188 189 191 192 195 194 193 193 193 193 192 185 185 186 181 186 191 185 188 184 185 188 194 197 203 191 183 185 191 196 197 188
200 183 177 179 181 185 185 182 182 185 189 189 188 188 190 184 184 189 189 185 178 179 186 186 185 187 188 186 186 186 185 186 188 190 192 191 191 191 190 192 194 190 183 172 174 183 188 184 183 181 182 183 187 193 198 203 184 181 182 188 193 194 192
180 224 187 191 191 189 188 186 182 184 183 185 190 195 190 189 188 187 185 179 180 184 185 188 184 185 186 187 186 184 185 185 186 188 187 187 188 188 190 192 189 179 171 170 177 182 186 184 177 178 180 182 188 195 196 201 176 177 180 185 191 195 195
220 210 204 166 190 199 191 188 183 182 186 187 187 187 188 192 190 181 183 182 183 184 186 186 183 184 184 187 185 185 185 183 184 183 183 183 184 186 188 186 184 179 170 165 171 178 179 181 173 174 179 187 189 191 194 191 171 178 179 185 192 192 191
195 216 216 187 182 191 192 189 187 188 185 184 183 184 193 193 187 182 178 183 185 185 187 185 184 183 184 187 186 185 183 181 179 178 179 179 180 183 182 179 177 172 162 160 163 164 173 175 172 173 180 184 183 184 189 181 180 176 181 186 191 182 192
207 220 243 224 169 187 194 207 199 193 188 183 182 186 191 188 184 181 180 182 183 183 186 187 189 186 183 185 184 182 179 177 175 174 175 176 178 178 177 173 166 164 164 164 165 166 166 161 164 174 178 175 177 179 179 168 182 179 182 186 185 184 190
290 234 241 253 180 182 199 202 209 210 199 184 186 190 186 185 183 179 183 184 184 184 185 190 189 184 183 184 180 176 173 172 171 170 171 173 175 172 166 164 163 164 168 167 163 160 156 161 167 171 168 170 165 158 156 147 176 184 183 186 182 186 188
350 324 294 258 248 203 191 198 187 188 196 198 198 190 186 186 187 185 182 186 185 186 189 190 188 185 182 172 166 166 165 165 165 166 169 169 164 163 161 158 160 162 159 157 157 156 162 164 149 135 138 136 141 156 158 146 161 183 187 185 179 185 184
6 318 355 13 330 293 201 192 192 188 188 193 196 190 186 187 189 190 189 184 185 190 193 186 178 172 165 160 159 159 160 161 164 163 162 158 156 152 150 154 154 152 157 155 143 129 138 148 152 147 150 156 156 156 166 152 155 180 180 182 183 189 186
53 30 349 278 40 48 44 164 203 199 198 196 193 187 183 183 187 190 188 185 190 193 185 166 161 160 157 156 158 158 158 158 156 154 151 148 144 144 147 141 136 138 138 130 133 134 141 143 142 138 136 139 140 149 173 161 157 165 186 184 188 188 188
58 75 46 12 21 21 42 52 168 224 220 201 190 186 186 185 186 190 183 186 193 183 162 154 154 154 154 153 153 153 152 150 148 147 146 145 144 143 143 139 134 136 136 136 132 122 116 119 119 119 116 112 114 119 142 143 148 157 171 186 182 184 188
9 38 71 63 43 50 58 59 55 60 44 13 339 278 201 182 184 186 183 189 178 161 153 149 149 148 147 148 146 143 141 141 141 139 141 142 140 138 137 139 137 130 122 121 121 120 119 123 123 122 122 120 120 131 131 134 141 165 164 175 181 174 182
346 357 50 51 19 23 89 92 88 80 66 60 347 324 318 276 185 181 185 181 163 161 156 151 147 145 145 144 142 137 135 133 132 135 136 138 138 138 138 135 129 118 122 122 120 121 121 125 122 124 132 130 136 134 111 104 118 132 160 159 164 168 182
2 357 9 24 28 17 25 57 80 101 140 199 186 185 239 253 204 189 188 173 165 159 153 148 143 140 139 136 133 132 131 126 124 126 129 130 133 132 132 131 130 129 130 125 126 129 131 135 133 136 136 140 134 130 125 122 120 123 132 139 158 170 183
29 37 50 49 24 28 49 78 50 38 50 44 10 257 230 212 200 188 175 165 159 152 145 139 133 130 129 128 126 125 126 125 127 121 116 118 114 115 120 125 128 129 129 130 132 132 135 137 143 146 153 156 149 137 140 144 146 149 151 142 146 148 149
26 46 45 54 55 63 60 63 67 68 65 52 32 16 359 352 352 326 163 153 147 139 133 129 129 126 123 120 118 118 119 121 123 118 111 108 114 120 123 123 130 130 133 139 141 140 142 149 154 161 159 168 144 147 145 157 166 170 167 161 151 144 148
32 42 42 45 45 67 78 78 76 75 70 52 47 49 29 0 1 358 352 11 49 104 112 114 114 116 115 114 113 111 106 101 98 103 105 94 76 52 45 88 119 110 82 15 68 142 154 159 156 158 169 165 156 153 164 163 185 201 173 162 160 151 151
28 43 44 41 49 53 62 64 75 82 80 78 66 65 67 36 9 3 22 38 49 51 48 51 62 87 107 112 112 109 104 104 104 104 105 106 105 97 77 50 48 39 94 110 43 45 46 120 156 160 152 142 151 164 172 193 194 146 146 146 145 144 142
18 22 40 46 49 50 56 58 68 76 79 76 61 42 65 72 47 6 8 45 59 72 87 96 91 80 86 106 109 111 114 115 111 108 104 105 105 102 104 93 57 52 51 65 66 60 64 58 80 171 132 141 147 6 8 119 131 145 147 142 143 145 146
25 17 17 35 50 52 54 47 43 59 74 79 103 123 114 115 104 348 123 130 148 151 129 129 127 126 128 115 108 113 116 114 113 113 110 108 111 114 117 111 105 64 42 47 60 56 52 50 47 93 142 144 137 130 23 92 137 143 147 146 143 151 154